Regional Weather Roundup
Issued by NWS Little Rock, AR

Home | Current Version | Previous Version | Text Only | Print | Product List | Glossary On
Versions: 1 2 3 4 5 6 7 8 9 10 11 12 13 14 15 16 17 18 19 20 21 22 23 24 25 26 27 28 29 30 31 32 33 34 35 36 37 38 39 40 41 42 43 44 45 46 47 48 49 50
000
ASUS44 KLZK 271605
RWRLZK

WEATHER ROUNDUP FOR ARKANSAS
NATIONAL WEATHER SERVICE LITTLE ROCK AR
1100 AM CDT MON MAR 27 2017

NOTE: "FAIR" INDICATES FEW OR NO CLOUDS BELOW 12,000 FEET WITH NO
SIGNIFICANT WEATHER AND/OR OBSTRUCTIONS TO VISIBILITY.

ARZ001-003-010-029-271700-
NORTHWEST ARKANSAS

CITY           SKY/WX    TMP DP  RH WIND       PRES   REMARKS
FAYETTEVILLE   CLOUDY    60  58  92 W8        29.84R
FORT SMITH     PTSUNNY   63  57  81 W18       29.84R
HARRISON       CLOUDY    57  55  93 SE7       29.83F
BENTONVILLE    CLOUDY    57  54  88 NW7       29.86R
ROGERS         CLOUDY    58  56  93 NW8       29.86R
SILOAM SPGS    CLOUDY    57  52  82 N12       29.86R
HIGHFILL       CLOUDY    58  56  93 NW13      29.84R
SPRINGDALE     CLOUDY    61  59  94 W9        29.86R
$$

ARZ004-005-016-271700-
NORTH CENTRAL ARKANSAS

CITY           SKY/WX    TMP DP  RH WIND       PRES   REMARKS
BATESVILLE     CLOUDY    57  55  94 S6        29.86F
FLIPPIN        CLOUDY    57  52  82 NE3       29.82S
MTN HOME       CLOUDY    56  55  97 E3        29.83R
$$

ARZ040-041-271700-
WEST CENTRAL ARKANSAS

CITY           SKY/WX    TMP DP  RH WIND       PRES   REMARKS
MENA           CLOUDY    70  68  94 W13G18    29.86R
MOUNT IDA      MOSUNNY   69  63  81 SW6       29.82S
$$

ARZ009-017-025-026-028-271700-
NORTHEAST ARKANSAS

CITY           SKY/WX    TMP DP  RH WIND       PRES   REMARKS
CORNING        TSTM      59  59 100 E7        29.88F
JONESBORO      CLOUDY    64  57  78 CALM      29.85F
NEWPORT        TSTM      59  57  93 N10       29.86
WALNUT RIDGE   PTSUNNY   57  54  88 NE13      29.86F THUNDER
BLYTHEVILLE    CLOUDY    70  62  76 S12       29.88F
$$

ARZ022-023-033-042-044-271700-
CENTRAL ARKANSAS

CITY           SKY/WX    TMP DP  RH WIND       PRES   REMARKS
LITTLE ROCK    CLOUDY    70  65  84 SW16G24   29.85R
N LITTLE ROCK    N/A     69  64  86 SW9G20    29.85R
JACKSONVILLE   CLOUDY    70  64  82 S16       29.84S
CONWAY           N/A     68  64  88 S16       29.82F
SEARCY         CLOUDY    69  65  86 S9        29.86S
HOT SPRINGS    CLOUDY    69  65  86 SW10G20   29.86R
RUSSELLVILLE   MOSUNNY   69  62  78 VRB7      29.82S
CLINTON        CLOUDY    59  57  94 CALM      29.84S
$$

ARZ036-271700-
EAST ARKANSAS

CITY           SKY/WX    TMP DP  RH WIND       PRES   REMARKS
WEST MEMPHIS   PTSUNNY   71  65  81 S16G32    29.87F
$$

ARZ050-053-066-070-073-271700-
SOUTHWEST ARKANSAS

CITY           SKY/WX    TMP DP  RH WIND       PRES   REMARKS
ARKADELPHIA    CLOUDY    70  66  87 S8        29.87R
CAMDEN         CLOUDY    70  64  83 S6        29.89S
TEXARKANA      CLOUDY    72  65  78 SW15G25   29.87R
EL DORADO      CLOUDY    73  66  78 SW9       29.90S
DE QUEEN       CLOUDY    69  67  93 W8        29.84S
$$

ARZ056-057-069-271700-
SOUTHEAST ARKANSAS

CITY           SKY/WX    TMP DP  RH WIND       PRES   REMARKS
PINE BLUFF     PTSUNNY   73  64  73 SW17G29   29.87F
STUTTGART      CLOUDY    73  61  64 S21G29    29.87R
MONTICELLO       N/A     74  65  73 MISG      29.90F

$$





USA.gov is the U.S. government's official web portal to all federal, state and local government web resources and services.